Location: Exeidioux
(45.6312°N, 1.6819°E)
Time: 15:07:02
(UTC+00:00)

Cosmos 1066 Rocket - Pass Details

Date: 03 March 2021
Orbit: 799 x 894 km, 81.2° (Epoch: 15 April)

Event Time Altitude Azimuth Distance (km) Brightness Sun altitude
Rises 19:35:45 0° 352° (N) 3,439 7.6 -20.4°
Reaches altitude 10° 19:38:12 10° 356° (N) 2,512 6.9 -20.8°
Maximum altitude 19:43:52 61° 76° (ENE) 992 4.2 -21.8°
Enters shadow 19:45:47 41° 137° (SE) 1,265 4.7 -22.1°
